Back to catalog

COSMOS 1432

AliveMilitaryLEO
NORAD 13764·PAYLOAD·🇷🇺 Russia

Launched Jan 19, 1983 from Plesetsk Cosmodrome

Loading…

Next Passes (next 24 hours)

TLE

FreshSource: Space-Track

Epoch: Sep 14, 2026, 08:54 UTC

1 13764U 83002D   26257.37122900 -.00000020  00000-0 -23936-4 0  9991
2 13764  74.0229 216.3099 0003555 302.4084 132.3381 12.49889629991992

Track COSMOS 1432 in real time with AllMySat

Download on the App Store